Location: *
(44.1392°N, 4.8079°E)
Time: 08:09:39
(UTC+00:00)

Cosmos 1151 Rocket - Pass Details

Date: 21 June 2021
Orbit: 592 x 615 km, 82.5° (Epoch: 02 August)

Event Time Altitude Azimuth Distance (km) Brightness Sun altitude
Rises 03:01:51 0° 340° (NNW) 2,843 6.8 -8.5°
Reaches altitude 10° 03:04:19 10° 328° (NNW) 1,934 5.8 -8.2°
Maximum altitude 03:07:52 26° 271° (W) 1,172 4.1 -7.7°
Drops below altitude 10° 03:11:25 10° 214° (SW) 1,920 4.9 -7.3°
Enters shadow 03:11:52 - 211° (SSW) 2,077 5.1 -7.2°
